Location: Csohesd
(46.2500°N, 22.6167°E)
Time: 12:27:34
(UTC+00:00)

SL-08 RB Rocket - Pass Details

Date: 21 October 2021
Orbit: 646 x 684 km, 97.8° (Epoch: 06 December)

Event Time Altitude Azimuth Distance (km) Brightness Sun altitude
Rises 16:37:39 0° 150° (SSE) 2,978 6.8 -11.9°
Reaches altitude 10° 16:39:54 10° 145° (SE) 2,077 5.9 -12.3°
Maximum altitude 16:44:16 49° 71° (ENE) 866 3.9 -13.1°
Drops below altitude 10° 16:48:43 10° 357° (N) 2,115 6.3 -13.8°
Sets 16:51:01 0° 352° (N) 3,040 7.2 -14.2°
